Home   Weather   Willich   Past weeks

Flag for Germany Past Weather in Willich, North Rhine-Westphalia, Germany — Yesterday and Last 2 Weeks

Now
46 °F

Scattered clouds.


Feels Like: 41 °F
Forecast: 38 / 60 °F
Wind: 10 mph from Northwest

Location: Monchengladbach Airport

Current Time: Apr 23, 2017 at 10:32:05 am

Latest Report: Apr 23, 2017 at 9:50 am


Visibility: N/A

Pressure: 30.30 "Hg

Humidity: 62%

Dew Point: 34 °F

Location of WillichLocation

Past Weather in Willich — Graph

°F

Willich Temperature Yesterday

Maximum temperature yesterday: 52 °F (at 1:20 pm)
Minimum temperature yesterday: 46 °F (at 8:50 pm)
Average temperature yesterday: 50 °F

High & Low Weather Summary for the Past Weeks

 TemperatureHumidityPressure
High73 °F (Apr 9, 4:50 pm)100% (Apr 9, 7:50 am)30.63 "Hg (Apr 9, 7:50 am)
Low30 °F (Apr 20, 7:50 am)25% (Apr 9, 4:50 pm)29.95 "Hg (Apr 12, 4:20 pm)
Average51 °F61%30.22 "Hg
* Reported Apr 8 9:20 am — Apr 23 9:20 am, Willich, Weather by CustomWeather, © 2017

Note: Actual official high and low records may vary slightly from our data, if they occured in-between our weather recording intervals... More about our weather records

Advertising

Willich Weather History for the Previous 24 Hours

Scroll right to see more
 ConditionsComfort  
Time TempWeatherWind HumidityBarometerVisibility
9:20 am
Sun, Apr 23
45 °FScattered clouds.12 mph66%30.30 "HgN/A
8:50 am43 °FSunny.10 mph76%30.30 "Hg10 mi
8:20 am43 °FSunny.9 mph76%30.30 "Hg10 mi
8:50 pm
Sat, Apr 22
46 °FClear.16 mph53%30.27 "Hg10 mi
8:20 pm48 °FPassing clouds.13 mph54%30.27 "HgN/A
7:50 pm48 °FClear.14 mph54%30.24 "Hg10 mi
7:20 pm48 °FClear.13 mph54%30.24 "Hg10 mi
6:50 pm50 °FClear.17 mph47%30.24 "Hg10 mi
6:20 pm52 °FPassing clouds.12 mph50%30.24 "HgN/A
5:50 pm50 °FPartly cloudy.14 mph54%30.24 "HgN/A
5:20 pm50 °FPartly cloudy.16 mph54%30.27 "HgN/A
4:50 pm50 °FPartly cloudy.13 mph58%30.27 "HgN/A
4:20 pm52 °FPassing clouds.14 mph50%30.27 "HgN/A
3:50 pm50 °FPassing clouds.12 mph58%30.27 "HgN/A
3:20 pm50 °FPartly cloudy.10 mph58%30.27 "HgN/A
2:50 pm50 °FClear.16 mph54%30.27 "Hg10 mi
1:50 pm50 °FPassing clouds.14 mph50%30.27 "HgN/A
1:20 pm52 °FPassing clouds.14 mph50%30.30 "HgN/A
12:50 pm48 °FPassing clouds.13 mph62%30.30 "HgN/A
12:20 pm50 °FPassing clouds.16 mph54%30.30 "HgN/A
Weather by CustomWeather, © 2017

See weather overviewHow to use our weather pages